CW8553 Weather Reports


time (UTC)temp
F
wind
direction
speed
knots
gust
knots
rain 1hr
in
rain 24hr
in
rain mn
in
humidity
%
barometer
mb
20260505164535 55 0 0.0 0.0 0.00 0.00 0.00 86 1016.1
20260505163034 55 0 0.0 0.0 0.00 0.00 0.00 87 1016.1
20260505161543 54 0 0.0 0.0 0.00 0.00 0.00 86 1016.0
20260505153037 54 0 0.0 0.0 0.00 0.00 0.00 87 1015.7
20260505151535 54 0 0.0 0.0 0.00 0.00 0.00 87 1015.7
20260505124549 54 0 0.0 0.0 0.00 0.00 0.00 88 1014.2
20260505123041 54 0 0.0 0.0 0.00 0.00 0.00 88 1014.2
20260505121542 54 0 0.0 0.0 0.00 0.00 0.00 89 1014.1
20260505120039 54 0 0.0 0.0 0.00 0.00 0.00 89 1014.0
20260505114538 54 0 0.0 0.0 0.00 0.00 0.00 88 1014.0
20260505113043 54 0 0.0 0.0 0.00 0.00 0.00 88 1014.1
20260505111540 54 0 0.0 0.0 0.00 0.00 0.00 89 1013.9
20260505101548 53 0 0.0 0.0 0.00 0.00 0.00 90 1013.7
20260505100036 53 0 0.0 0.0 0.00 0.00 0.00 89 1013.6
20260505094539 53 0 0.0 0.0 0.00 0.00 0.00 90 1013.5
20260505093039 53 0 0.0 0.0 0.00 0.00 0.00 90 1013.4
20260505091538 53 0 0.0 0.0 0.00 0.00 0.00 90 1013.4
20260505090042 53 0 0.0 0.0 0.00 0.00 0.00 90 1013.3
20260505084548 53 0 0.0 0.0 0.00 0.00 0.00 90 1013.1
20260505083053 53 0 0.0 0.0 0.00 0.00 0.00 90 1013.2
20260505081538 53 0 0.0 0.0 0.00 0.00 0.00 90 1013.2
20260505080046 53 0 0.0 0.0 0.00 0.00 0.00 90 1013.1
20260505074537 54 0 0.0 0.0 0.00 0.00 0.00 89 1012.9
20260505073038 54 0 0.0 0.0 0.00 0.00 0.00 89 1012.8
20260505071545 54 0 0.0 0.0 0.00 0.00 0.00 89 1012.5
20260505070035 54 0 0.0 0.0 0.00 0.00 0.00 88 1012.3
20260505064540 54 0 0.0 0.0 0.00 0.00 0.00 88 1012.3
20260505063040 54 0 0.0 0.0 0.00 0.00 0.00 88 1012.3
20260505061538 54 0 0.0 0.0 0.00 0.00 0.00 87 1011.9
20260505060042 55 0 0.0 0.0 0.00 0.00 0.00 87 1011.7
20260505054546 55 0 0.0 0.0 0.00 0.00 0.00 86 1011.7
20260505053040 55 0 0.0 0.0 0.00 0.00 0.00 85 1011.6
20260505051537 56 0 0.0 0.0 0.00 0.00 0.00 85 1011.6
20260505041549 60 0 0.0 0.0 0.00 0.00 0.00 76 1010.8
20260505040039 62 0 0.0 0.0 0.00 0.00 0.00 74 1010.6
20260505034536 63 0 0.0 0.0 0.00 0.00 0.00 72 1010.4
20260505033039 64 0 0.0 0.0 0.00 0.00 0.00 70 1010.1
20260505031552 66 0 0.0 0.0 0.00 0.00 0.00 68 1010.0
20260505030042 67 0 0.0 0.0 0.00 0.00 0.00 65 1009.8
20260505024547 69 0 0.0 0.0 0.00 0.00 0.00 63 1009.7
20260505023042 70 0 0.0 0.0 0.00 0.00 0.00 61 1009.6
20260505021536 71 0 0.0 0.0 0.00 0.00 0.00 59 1009.6
20260505020035 72 0 0.0 0.0 0.00 0.00 0.00 56 1009.6
20260505014559 73 0 0.0 0.0 0.00 0.00 0.00 57 1009.7
20260505013038 74 0 0.0 0.0 0.00 0.00 0.00 57 1009.6
20260505011547 75 0 0.0 0.0 0.00 0.00 0.00 55 1009.6
20260505010037 75 0 0.0 0.0 0.00 0.00 0.00 56 1009.6
20260505004536 76 0 0.0 0.0 0.00 0.00 0.00 55 1009.6
20260505003039 76 0 0.0 0.0 0.00 0.00 0.00 53 1009.6
20260505001542 76 0 0.0 0.0 0.00 0.00 0.00 53 1009.6
20260505000037 77 0 0.0 0.0 0.00 0.00 0.00 51 1009.6
20260504234536 78 0 0.0 0.0 0.00 0.00 0.00 51 1009.6
20260504233040 78 0 0.0 0.0 0.00 0.00 0.00 52 1009.6
20260504231541 78 0 0.0 0.0 0.00 0.00 0.00 49 1009.6
20260504230046 79 0 0.0 0.0 0.00 0.00 0.00 48 1009.9
20260504224543 78 0 0.0 0.0 0.00 0.00 0.00 48 1010.2
20260504223037 78 0 0.0 0.0 0.00 0.00 0.00 45 1010.3
20260504221539 77 0 0.0 0.0 0.00 0.00 0.00 44 1010.4
20260504220035 78 0 0.0 0.0 0.00 0.00 0.00 47 1010.5
20260504214542 77 0 0.0 0.0 0.00 0.00 0.00 49 1010.6
20260504213039 77 0 0.0 0.0 0.00 0.00 0.00 53 1010.6
20260504211537 76 0 0.0 0.0 0.00 0.00 0.00 53 1010.7
20260504210053 74 0 0.0 0.0 0.00 0.00 0.00 55 1010.8
20260504204556 73 0 0.0 0.0 0.00 0.00 0.00 58 1010.8
20260504203044 72 0 0.0 0.0 0.00 0.00 0.00 59 1010.8
20260504201539 71 0 0.0 0.0 0.00 0.00 0.00 60 1010.7
20260504200038 71 0 0.0 0.0 0.00 0.00 0.00 59 1010.8
20260504194538 70 0 0.0 0.0 0.00 0.00 0.00 60 1011.0
20260504193041 70 0 0.0 0.0 0.00 0.00 0.00 59 1010.9
20260504191539 69 0 0.0 0.0 0.00 0.00 0.00 58 1011.2
20260504190038 70 0 0.0 0.0 0.00 0.00 0.00 60 1011.1
20260504184538 67 0 0.0 0.0 0.00 0.00 0.00 63 1011.3
20260504183037 68 0 0.0 0.0 0.00 0.00 0.00 62 1011.3
20260504181537 67 0 0.0 0.0 0.00 0.00 0.00 64 1011.4
20260504180041 67 0 0.0 0.0 0.00 0.00 0.00 68 1011.6
20260504174540 65 0 0.0 0.0 0.00 0.00 0.00 68 1011.5
20260504173041 64 0 0.0 0.0 0.00 0.00 0.00 67 1011.4
20260504171539 65 0 0.0 0.0 0.00 0.00 0.00 67 1011.3